Date,TemperatureHighF,TemperatureAvgF,TemperatureLowF,DewpointHighF,DewpointAvgF,DewpointLowF,HumidityHigh,HumidityAvg,HumidityLow,PressureMaxIn,PressureMinIn,WindSpeedMaxMPH,WindSpeedAvgMPH,GustSpeedMaxMPH,PrecipitationSumIn
2013-1-1,33,32,26,32,30,21,97,93,75,30.14,30.02,8,0,9,0.00
2013-1-2,33,25,18,22,19,14,94,77,58,30.24,30.12,5,0,5,0.02
2013-1-3,36,26,17,25,19,14,91,75,51,30.31,30.18,11,1,11,0.05
2013-1-4,37,32,29,27,24,22,82,74,59,30.34,30.28,14,3,18,0.05
2013-1-5,40,32,23,30,26,21,93,79,63,30.35,30.16,8,1,9,0.11
2013-1-6,39,34,28,34,29,22,86,80,77,30.34,30.03,10,2,14,0.03
2013-1-7,40,31,21,29,25,19,95,79,61,30.45,30.23,9,1,11,0.00
2013-1-8,52,38,26,36,30,23,92,74,53,30.31,30.21,13,1,13,0.00
2013-1-9,55,46,35,47,40,32,96,78,57,30.50,30.21,7,1,13,0.07
2013-1-10,47,39,33,43,36,30,94,87,76,30.50,30.09,13,2,15,0.15
2013-1-11,62,55,47,55,50,43,97,86,66,30.09,29.88,19,4,22,0.54
2013-1-12,65,58,53,63,56,50,97,94,85,30.03,29.82,12,1,17,0.01
2013-1-13,66,54,35,62,52,32,98,94,81,30.14,29.76,15,3,17,1.16
2013-1-14,34,27,24,32,23,21,93,86,80,30.43,30.15,7,1,10,0.00
2013-1-15,32,28,23,27,24,21,90,84,76,30.34,30.06,11,2,15,0.00
2013-1-16,36,32,30,30,29,27,93,87,75,30.08,29.98,8,1,8,0.01
2013-1-17,44,34,28,34,28,22,92,80,56,30.37,30.09,11,1,14,0.00
2013-1-18,40,30,18,26,21,16,92,71,47,30.51,30.26,9,2,12,0.00
2013-1-20,36,32,27,23,14,9,61,45,35,30.22,30.08,11,1,14,0.00
2013-1-21,27,22,13,18,11,0,75,62,45,30.23,30.09,13,2,18,0.00
2013-1-22,20,14,8,5,1,-2,80,58,41,30.37,30.23,9,1,11,0.00
2013-1-23,24,17,12,13,6,3,74,62,55,30.33,30.08,6,1,10,0.00
2013-1-24,25,20,15,16,8,1,73,60,37,30.55,30.08,13,2,15,0.00
2013-1-25,26,23,20,22,16,8,92,75,56,30.41,30.04,13,2,15,0.00
2013-1-26,34,26,19,22,20,16,93,78,56,30.41,30.12,9,0,9,0.00
2013-1-27,39,30,21,38,24,17,95,80,59,30.41,30.15,9,3,13,0.23
2013-1-28,54,48,38,52,46,37,97,93,80,30.16,30.04,13,3,16,0.15
2013-1-29,64,59,53,59,55,51,95,86,80,30.06,29.61,16,4,19,0.00
2013-1-30,67,54,32,60,50,25,97,87,74,29.62,29.32,18,5,23,0.77
2013-1-31,32,27,17,25,19,12,91,74,60,30.03,29.60,16,4,21,0.00
2013-2-1,19,13,7,11,5,1,83,71,59,30.39,30.03,14,2,14,0.00
2013-2-2,31,24,13,27,20,9,100,86,75,30.30,29.98,8,1,11,0.04
2013-2-3,28,23,18,24,18,14,90,84,76,30.11,29.93,7,1,13,0.00
2013-2-4,35,26,16,34,23,14,100,88,70,30.10,29.82,12,1,12,0.01
2013-2-5,38,34,28,35,31,26,97,89,81,30.01,29.84,5,0,8,0.05
2013-2-6,38,34,30,33,29,27,87,82,74,30.24,30.01,8,0,11,0.00
2013-2-7,62,45,32,40,34,28,92,68,40,30.19,29.81,10,2,12,0.00
2013-2-8,52,38,31,46,33,24,94,82,60,30.31,29.81,13,2,20,0.08
2013-2-9,42,33,23,25,21,18,82,62,39,30.40,30.23,10,1,13,0.00
2013-2-11,50,45,38,40,31,28,69,58,48,30.06,29.83,18,5,24,0.00
2013-2-12,49,39,30,29,27,24,85,64,37,30.14,29.90,10,1,10,0.00
2013-2-13,36,33,30,32,28,26,94,83,71,29.90,29.77,6,0,7,0.09
2013-2-14,54,41,31,40,34,29,95,78,52,30.00,29.83,12,2,14,0.01
2013-2-15,41,34,26,32,28,21,91,78,58,30.15,29.99,11,1,14,0.00
2013-2-16,30,24,19,22,17,11,94,76,50,30.14,30.03,9,1,13,0.00
2013-2-17,33,24,15,16,11,6,88,60,33,30.23,30.10,8,0,10,0.00
2013-2-18,59,42,25,41,26,9,83,53,43,30.19,29.76,19,5,24,0.05
2013-2-19,46,38,25,42,33,15,95,83,61,30.11,29.68,17,6,22,0.14
2013-2-20,31,24,20,16,14,12,79,66,52,30.28,30.11,11,1,14,0.00
2013-2-21,34,26,18,27,19,14,89,77,62,30.32,30.02,18,2,22,0.00
2013-2-22,44,36,30,40,34,27,98,91,82,30.05,29.87,12,2,15,0.05
2013-2-23,45,36,32,33,29,26,96,76,50,29.99,29.90,6,0,8,0.00
2013-2-24,44,33,26,28,25,22,89,73,51,30.14,29.93,6,0,9,0.00
2013-2-25,47,36,26,29,25,21,83,64,46,30.16,29.88,15,3,18,0.00
2013-2-26,50,42,36,49,38,24,97,85,56,29.89,29.37,21,4,21,0.99
2013-2-27,41,37,33,39,34,30,95,90,80,29.74,29.54,15,4,17,0.04
2013-2-28,36,34,32,34,31,29,94,90,86,29.93,29.71,13,2,14,0.01
2013-3-1,32,31,30,29,27,25,89,86,82,30.03,30.01,7,1,10,0.10
2013-3-2,30,28,26,25,23,22,86,83,81,30.07,30.00,7,1,11,0.00
2013-3-4,42,36,18,28,24,17,100,61,49,30.15,29.98,12,2,14,0.01
2013-3-5,40,37,30,38,32,25,97,82,58,29.99,29.59,14,2,16,0.36
2013-3-6,33,29,28,31,28,26,97,95,91,30.25,29.67,7,0,9,0.08
2013-3-7,37,33,30,32,30,27,96,89,78,30.37,30.23,4,0,5,0.21
2013-3-8,46,35,25,29,26,22,92,71,47,30.45,30.35,12,0,12,0.03
2013-3-9,57,44,31,37,32,27,85,65,42,30.36,30.03,14,3,18,0.00
2013-3-10,68,59,52,44,37,34,61,44,32,30.04,29.83,10,4,14,0.04
2013-3-11,58,49,40,53,46,36,97,89,57,29.88,29.63,17,4,24,1.30
2013-3-17,36,35,34,34,33,32,95,92,89,30.06,29.97,9,3,14,0.27
2013-3-18,50,41,34,48,39,33,98,94,78,29.98,29.63,14,3,18,0.96
2013-3-19,45,36,29,35,26,16,91,67,30,30.06,29.84,17,4,19,0.00
2013-3-21,33,27,20,15,13,9,79,56,44,30.03,29.94,9,1,10,0.00
2013-3-22,45,30,19,22,17,14,89,64,32,30.07,29.97,6,0,9,0.00
2013-3-23,53,38,32,27,23,20,75,57,31,30.06,29.86,8,0,11,0.00
2013-3-24,42,36,33,34,29,24,99,79,49,29.87,29.41,12,2,19,0.26
2013-3-25,34,32,30,33,31,28,100,94,91,29.95,29.43,11,2,14,0.19
2013-3-26,40,35,32,33,30,26,100,83,66,30.23,29.95,8,1,12,0.08
2013-3-27,44,36,29,32,27,25,88,70,50,30.30,30.22,8,1,11,0.00
2013-3-28,51,39,26,30,26,22,88,62,41,30.35,30.27,7,0,10,0.00
2013-3-29,55,43,29,34,30,26,89,63,36,30.32,30.19,6,0,8,0.00
2013-3-30,60,48,32,38,34,28,88,58,36,30.23,29.95,12,1,13,0.00
2013-3-31,58,50,46,48,44,38,97,81,55,29.95,29.80,10,1,12,0.08
2013-4-1,50,43,36,42,33,20,83,68,35,30.12,29.81,9,1,14,0.00
2013-4-2,48,36,25,24,20,16,82,56,30,30.25,30.11,8,1,9,0.00
2013-4-3,47,43,40,19,17,15,42,35,27,30.33,30.29,7,1,8,0.00
2013-4-4,55,44,34,27,21,16,57,42,25,30.31,29.99,12,1,12,0.00
2013-4-5,64,48,32,38,30,26,82,52,25,30.13,29.98,9,1,12,0.00
2013-4-6,68,47,39,40,29,23,61,49,31,30.19,29.92,15,3,19,0.00
2013-4-7,72,63,56,56,47,38,93,57,44,30.01,29.88,11,3,16,0.24
2013-4-8,72,63,55,57,54,50,95,74,57,30.02,29.90,10,2,16,0.00
2013-4-9,80,69,58,62,57,53,83,67,49,30.06,29.94,17,2,20,0.00
2013-4-10,82,74,66,66,62,58,81,66,52,29.99,29.79,11,3,19,0.00
2013-4-11,72,65,58,63,60,56,98,84,63,29.84,29.56,17,2,19,1.10
2013-4-12,58,47,40,58,40,32,98,77,60,29.93,29.54,12,3,17,0.11
2013-4-13,60,47,36,39,35,32,88,64,39,30.04,29.93,13,3,18,0.00
2013-4-14,71,56,42,48,41,36,82,60,37,30.05,29.87,12,3,18,0.00
2013-4-15,68,61,55,56,52,46,78,71,57,30.01,29.90,11,2,13,0.00
2013-4-17,78,69,57,67,63,57,100,82,67,30.19,29.97,15,3,17,0.33
2013-4-18,82,68,64,66,60,53,89,77,45,29.98,29.63,20,4,30,0.00
2013-4-19,74,60,40,62,51,31,95,75,53,29.91,29.47,18,5,24,0.71
2013-4-21,58,51,35,36,31,26,71,47,35,30.50,30.35,11,2,13,0.00
2013-4-22,69,56,40,46,36,28,66,50,35,30.36,30.13,12,1,12,0.00
2013-4-23,69,62,50,56,48,40,71,62,56,30.14,29.88,10,2,13,0.00
2013-4-24,65,54,42,56,48,37,96,80,61,30.12,29.80,12,2,16,0.81
2013-4-25,58,50,42,37,33,31,68,53,42,30.37,30.27,7,0,8,0.00
2013-4-26,62,50,35,37,33,30,90,55,32,30.45,30.33,9,1,11,0.00
2013-5-5,52,52,52,51,51,50,95,95,94,29.94,29.92,6,2,8,0.04
2013-5-6,63,56,52,58,53,51,97,92,78,29.94,29.88,16,4,23,0.52
2013-5-7,74,59,56,61,56,54,96,91,56,29.99,29.92,7,0,9,0.27
2013-5-8,78,64,53,62,58,52,99,82,47,30.02,29.94,5,0,10,0.02
2013-5-14,75,72,70,60,60,59,70,64,59,29.91,29.89,5,0,5,0.00
2013-5-15,87,73,68,63,60,56,75,64,39,29.94,29.85,13,3,14,0.00
2013-5-16,76,69,62,68,61,55,96,77,55,30.00,29.88,8,1,9,0.07
2013-5-17,80,67,59,68,63,58,98,88,64,30.07,30.00,10,1,13,0.12
2013-5-20,85,78,68,72,70,66,95,77,61,30.03,29.91,9,1,11,0.00
2013-5-21,83,73,67,70,67,63,91,82,55,30.01,29.83,11,1,15,0.00
2013-5-22,78,69,63,69,64,61,96,85,64,29.88,29.76,10,1,15,0.04
2013-5-23,68,65,62,64,61,56,98,89,67,29.91,29.82,6,0,12,0.04
2013-5-27,74,74,73,61,60,60,63,63,62,30.01,29.99,1,0,4,0.23
2013-5-28,73,69,67,62,61,60,83,74,63,30.02,29.98,4,0,5,0.01
2013-5-30,86,81,72,71,68,64,79,66,57,30.16,30.02,11,1,13,0.00
2013-5-31,81,74,68,71,67,64,96,80,68,30.08,29.99,13,1,16,0.40
2013-6-1,78,72,69,71,67,65,95,87,70,29.99,29.81,17,1,18,0.05
2013-6-2,78,70,64,67,63,60,93,78,56,29.95,29.85,7,1,11,0.00
2013-6-3,71,64,56,60,54,50,86,71,56,30.07,29.94,6,0,9,0.00
2013-6-4,76,65,53,52,48,40,90,58,31,30.15,30.06,12,2,20,0.00
2013-6-5,83,70,58,65,57,48,89,64,50,30.09,29.88,9,1,13,0.00
2013-6-6,75,67,65,68,64,62,98,91,74,29.89,29.80,6,0,9,0.46
2013-6-7,77,67,60,62,60,58,94,79,57,29.85,29.81,7,1,8,0.00
2013-6-25,88,83,79,75,74,73,83,75,63,29.96,29.92,4,0,5,0.00
2013-6-26,84,72,67,76,69,66,98,91,72,29.98,29.80,11,0,12,1.92
2013-6-27,86,75,67,74,70,66,99,87,65,29.83,29.74,6,0,9,0.00
2013-6-28,86,75,65,72,67,61,95,77,45,29.74,29.63,11,1,20,0.03
2013-6-29,75,69,63,69,66,62,97,90,74,29.69,29.61,5,0,8,0.06
2013-6-30,82,71,64,70,66,63,98,83,60,29.85,29.67,8,0,9,0.01
2013-7-1,81,69,65,70,66,62,95,89,66,29.93,29.82,6,0,15,0.30
2013-7-2,81,71,64,70,66,63,98,87,65,30.04,29.92,7,1,10,0.00
2013-7-3,80,73,67,71,68,66,96,85,68,30.13,30.03,7,0,12,0.00
2013-7-4,73,70,68,70,68,66,94,91,88,30.16,30.11,8,0,9,0.01
2013-7-6,73,69,67,72,68,66,99,97,90,30.13,30.07,6,1,8,1.38
2013-7-7,82,71,65,72,67,64,99,90,66,30.14,30.06,4,0,6,0.00
2013-7-8,86,77,68,75,71,66,97,83,64,30.16,30.06,7,0,8,0.00
2013-7-9,88,80,74,79,74,71,96,83,67,30.11,30.01,7,0,10,0.15
2013-7-10,79,78,77,74,74,73,88,86,84,30.03,30.00,0,0,0,0.00
2013-7-11,73,70,69,61,59,58,70,68,66,30.03,30.00,1,0,6,0.00
2013-7-12,82,72,60,63,59,56,92,66,44,30.11,30.03,14,1,14,0.00
2013-7-13,83,75,67,69,65,60,81,71,54,30.15,30.06,12,2,14,0.00
2013-7-14,89,79,70,76,71,67,89,77,60,30.23,30.13,12,1,13,0.02
2013-7-15,91,82,73,74,72,68,90,73,52,30.32,30.23,7,0,8,0.00
2013-7-16,93,82,71,79,73,70,96,76,52,30.35,30.27,5,0,6,0.04
2013-7-17,93,84,74,78,75,73,97,78,57,30.34,30.21,5,0,7,0.00
2013-7-18,93,84,74,77,74,72,94,74,53,30.23,30.05,5,0,6,0.00
2013-7-19,88,79,75,78,75,72,96,89,69,30.08,29.92,6,0,9,0.16
2013-7-20,88,78,73,76,72,70,92,84,63,29.96,29.87,10,1,12,0.02
2013-7-21,88,77,70,74,71,68,96,83,61,29.99,29.90,6,0,7,0.00
2013-7-22,79,72,69,74,70,67,99,94,81,29.93,29.81,8,0,10,0.03
2013-7-23,83,80,73,75,73,68,83,79,74,29.86,29.76,10,0,10,0.00
2013-7-24,80,69,59,68,61,57,92,76,57,30.01,29.85,8,1,11,0.00
2013-7-25,79,69,58,61,58,54,88,68,45,30.10,30.01,7,0,11,0.00
2013-7-26,80,68,57,64,60,56,97,75,55,30.10,30.02,7,0,8,0.00
2013-7-29,79,67,55,61,58,53,95,73,49,30.19,30.07,6,0,7,0.00
2013-7-30,64,60,58,60,58,57,96,93,85,30.22,30.19,0,0,0,0.00
2013-8-1,66,66,65,61,61,60,84,84,84,30.00,29.99,0,0,0,0.00
2013-8-2,82,71,59,68,63,58,97,78,55,30.04,29.98,6,0,8,0.00
2013-8-3,82,73,67,72,68,63,97,84,67,30.06,29.98,5,0,8,0.04
2013-8-4,80,70,60,64,58,53,90,67,42,30.14,30.05,10,0,12,0.00
2013-8-5,80,68,56,62,58,55,97,72,46,30.13,29.98,7,0,10,0.00
2013-8-6,81,70,68,72,62,59,91,74,65,29.99,29.94,7,0,10,0.00
2013-8-7,84,76,70,76,72,69,99,89,73,29.97,29.90,4,0,6,0.00
2013-8-8,85,74,70,76,71,70,98,93,72,29.98,29.92,5,0,6,0.02
2013-8-21,83,76,71,74,70,67,89,81,72,30.13,30.08,4,0,5,0.01
2013-8-22,88,75,68,74,70,66,98,85,54,30.14,30.05,7,0,11,0.03
2013-8-23,85,74,67,72,68,65,98,84,60,30.15,30.05,5,0,8,0.01
2013-8-24,76,69,64,65,62,58,85,78,70,30.26,30.15,7,0,8,0.00
2013-9-3,74,68,59,60,58,56,92,72,55,30.07,29.98,8,0,8,0.00
2013-9-4,81,68,55,64,60,54,98,79,52,30.17,30.07,5,0,6,0.00
2013-9-5,86,72,59,66,62,58,98,75,43,30.20,30.14,6,0,7,0.00
2013-9-21,72,65,58,62,56,52,99,76,51,29.87,29.74,9,0,9,1.14
2013-9-22,69,55,49,52,49,46,95,80,48,30.02,29.89,8,0,15,0.01
2013-9-23,69,58,48,52,48,45,91,71,50,30.11,30.01,11,1,12,0.00
2013-9-24,74,61,49,61,53,46,92,77,61,30.08,29.92,9,1,12,0.00
2013-9-25,75,64,57,60,56,52,92,76,52,29.94,29.88,9,0,12,0.00
2013-9-26,76,62,50,61,56,48,97,80,55,30.07,29.93,8,0,11,0.00
2013-9-27,80,66,53,62,55,50,96,72,36,30.18,30.07,7,0,7,0.00
2013-9-29,68,63,59,61,60,58,97,91,76,30.07,30.02,7,0,9,0.06
2013-9-30,74,65,60,66,62,60,97,90,71,30.05,29.97,4,0,6,0.01
2013-10-1,77,66,58,66,62,57,100,88,68,30.11,30.02,7,0,9,0.01
2013-10-2,78,68,61,70,65,60,99,93,76,30.14,30.06,4,0,6,0.00
2013-10-3,80,72,67,70,68,66,99,90,66,30.11,30.02,6,0,8,0.40
2013-10-4,83,72,65,71,67,64,98,85,62,30.11,30.04,7,0,9,0.00
2013-10-5,78,71,67,72,68,66,98,93,81,30.08,29.97,7,0,9,1.21
2013-10-6,72,64,53,69,64,52,99,97,88,29.98,29.67,9,1,15,2.34
2013-10-7,63,53,46,54,47,44,98,82,58,30.14,29.82,9,1,12,0.00
2013-10-8,67,55,43,51,47,42,99,77,48,30.26,30.14,12,1,15,0.00
2013-10-9,74,55,48,54,48,45,92,77,42,30.21,30.12,9,0,11,0.00
2013-10-10,74,59,44,52,47,43,97,69,37,30.17,30.05,5,0,5,0.00
2013-10-11,79,62,47,58,51,46,97,73,41,30.09,29.99,4,0,6,0.00
2013-10-12,79,64,51,62,56,50,97,79,45,30.09,30.00,6,0,6,0.00
2013-10-13,75,63,55,63,57,45,98,81,56,30.26,30.08,7,0,7,0.00
2013-10-14,73,59,46,55,48,42,90,69,43,30.30,30.14,7,0,9,0.00
2013-10-15,73,64,57,65,60,55,98,88,74,30.16,29.92,9,0,11,0.00
2013-10-16,65,61,49,62,58,47,98,90,76,29.93,29.86,7,0,9,0.17
2013-10-17,55,48,43,50,46,42,97,91,77,29.98,29.87,8,0,11,0.09
2013-10-18,64,47,42,52,44,42,98,90,51,30.04,29.93,8,0,12,0.01
2013-10-19,51,49,47,47,46,44,94,89,85,29.93,29.81,4,0,4,0.09
2013-10-20,50,49,48,44,42,41,78,77,76,30.01,30.00,2,0,4,0.00
2013-10-21,65,53,43,49,43,39,89,69,48,30.01,29.89,10,1,14,0.01
2013-10-22,52,44,32,48,35,30,96,72,44,30.04,29.83,7,0,13,0.15
2013-10-23,46,42,37,41,38,31,95,84,59,30.00,29.71,12,1,14,0.10
2013-10-27,43,40,39,37,36,35,92,84,78,30.08,30.05,0,0,0,0.00
2013-10-28,64,48,33,41,36,32,96,69,35,30.28,30.08,8,0,11,0.00
2013-10-29,57,50,40,52,43,36,90,77,66,30.34,30.19,7,0,9,0.00
2013-10-30,64,59,53,63,58,50,99,97,90,30.19,29.98,7,0,9,0.18
2013-10-31,65,63,58,64,60,56,97,89,79,29.99,29.34,15,3,19,0.82
2013-11-1,63,56,49,55,51,44,95,84,53,29.74,29.41,15,3,16,0.02
2013-11-2,57,49,42,45,41,36,91,73,51,30.09,29.73,12,1,12,0.00
2013-11-3,54,45,38,43,38,35,96,78,54,30.36,30.08,6,0,7,0.00
2013-11-4,58,49,40,45,40,34,86,72,57,30.40,30.28,12,2,13,0.00
2013-11-5,62,55,50,46,43,38,82,66,52,30.39,30.19,9,1,12,0.00
2013-11-6,65,57,45,59,50,38,97,79,54,30.19,29.96,17,2,17,0.33
2013-11-7,49,43,38,43,34,27,96,73,44,30.26,30.00,9,1,12,0.04
2013-11-8,52,40,30,34,31,28,94,70,42,30.39,30.21,7,0,9,0.00
2013-11-9,61,49,38,40,34,28,74,56,39,30.24,30.03,13,2,18,0.00
2013-11-10,52,45,33,42,34,27,88,66,41,30.34,30.10,13,1,15,0.00
2013-11-11,59,44,30,44,33,26,93,69,28,30.30,30.09,16,1,18,0.06
2013-11-12,37,31,26,34,24,21,95,78,57,30.62,30.23,14,2,19,0.09
2013-11-13,32,32,31,22,22,21,68,67,66,30.44,30.42,1,0,3,0.01
2013-11-14,53,39,30,27,23,20,72,55,29,30.42,30.17,12,1,13,0.00
2013-11-16,61,60,60,56,56,56,86,85,85,29.91,29.89,10,4,16,0.00
2013-11-17,65,60,52,63,56,43,97,90,66,29.90,29.50,24,4,25,1.12
2013-11-18,54,48,39,42,36,29,84,66,44,30.16,29.78,13,2,17,0.01
2013-11-19,41,34,28,31,28,26,92,80,63,30.34,30.18,8,0,10,0.00
2013-11-20,51,41,30,35,31,25,84,67,52,30.33,30.22,12,2,13,0.00
2013-11-21,54,49,43,50,41,32,96,74,62,30.32,30.18,8,1,12,0.06
2013-11-22,54,49,38,53,46,31,98,91,74,30.35,30.15,11,1,15,0.11
2013-11-23,39,34,23,31,26,14,94,74,41,30.57,30.34,12,1,16,0.00
2013-11-24,28,22,15,17,13,8,84,69,53,30.71,30.55,10,0,14,0.00
2013-11-25,40,30,20,30,18,13,93,63,44,30.56,30.20,11,2,16,0.00
2013-11-26,34,32,31,33,31,28,97,93,84,30.22,29.92,7,0,9,0.10
2013-11-27,33,28,24,30,23,18,88,78,71,30.25,29.92,14,2,17,0.00
2013-11-29,40,34,23,27,24,20,88,66,54,30.65,30.52,5,1,8,0.02
2013-11-30,52,38,29,32,28,23,82,67,46,30.52,30.18,8,1,10,0.01
2013-12-1,53,46,40,40,34,29,72,64,58,30.18,29.94,8,1,10,0.00
2013-12-2,51,45,38,41,38,34,89,76,66,29.95,29.76,7,0,8,0.00
2013-12-3,52,46,37,47,43,35,96,88,81,29.86,29.77,11,1,13,0.00
2013-12-4,63,55,48,58,52,46,96,92,83,29.84,29.69,13,3,15,0.00
2013-12-5,65,49,32,61,46,30,98,90,81,30.15,29.74,9,2,12,1.26
2013-12-6,32,29,26,30,27,25,96,95,90,30.40,30.10,7,1,9,0.12
2013-12-7,28,24,19,25,20,16,94,88,77,30.61,30.39,7,0,9,0.00
2013-12-8,32,25,20,32,23,17,98,91,85,30.54,30.03,0,0,0,0.00
2013-12-9,32,29,24,32,27,22,98,92,87,30.24,30.02,7,1,9,0.00
2013-12-10,28,23,20,21,18,15,93,83,68,30.38,30.17,12,2,15,0.00
2013-12-11,35,20,15,26,16,12,94,85,65,30.53,30.31,13,1,14,0.01
2013-12-12,25,16,8,13,9,3,90,77,46,30.59,30.39,10,1,11,0.00
2013-12-15,30,29,27,24,23,22,86,81,74,30.14,30.02,10,3,13,0.78
2013-12-16,35,30,27,33,28,24,96,92,86,30.14,30.00,6,1,8,0.04
2013-12-17,36,32,29,34,28,25,100,88,79,30.19,29.99,10,1,12,0.00
2013-12-18,38,31,24,26,22,19,92,70,46,30.30,30.07,11,2,11,0.00
2013-12-19,55,47,37,44,33,22,70,59,53,30.10,29.95,12,3,14,0.01
2013-12-20,61,55,51,58,46,38,93,74,54,29.96,29.80,15,4,18,0.01
2013-12-21,65,59,58,63,58,57,98,95,89,29.81,29.63,11,4,13,1.03
2013-12-22,61,52,38,60,49,36,97,90,78,30.03,29.51,14,4,23,0.27
2013-12-23,38,32,25,36,27,19,95,84,73,30.40,30.02,7,1,11,0.03
2013-12-24,26,19,14,22,13,8,89,78,64,30.57,30.38,9,1,11,0.00
2013-12-25,32,21,18,19,14,13,81,75,55,30.52,30.31,12,4,15,0.00
2013-12-26,33,33,33,26,25,25,74,74,73,30.35,30.35,2,0,4,0.00
2013-12-27,49,37,29,33,28,24,83,70,52,30.43,30.29,6,1,11,0.00
2013-12-28,51,42,35,35,31,28,77,64,52,30.30,30.02,5,1,10,0.00
2013-12-29,43,39,32,41,35,30,97,87,60,30.03,29.81,6,2,13,0.31
2013-12-30,32,26,22,30,20,18,93,79,75,30.25,30.03,3,1,8,0.00
2013-12-31,32,26,22,22,19,16,81,73,62,30.33,30.20,6,2,11,0.00
2014-1-1,46,36,26,31,27,22,87,70,51,30.29,30.01,7,1,11,0.00
2014-1-2,38,25,11,33,22,7,97,87,66,30.37,29.79,11,2,14,0.10